When you browse on this site, cookies collect data to enhance your experience and personalize the content and advertising you see.
Visit our Privacy Policy to learn more. By continuing to use the site, you agree to this use of cookies and data.
  • In Österreich
  • Länderverzeichnis
  • Für 7 Tage
  • Wassertemperatur
  • Wetterkarte
  • News
  • Widgets
  • user-avatar
    Anmelden

    Stündliche Wetter Towson

    Heute, 18 August, Sonntag

    Zeit Temperatur Niederschläge Wind Luftdruck Luftfeuchtigkeit
    00:00 +27°C° 0 mm 1 m/S 751 mmHg 81%
    01:00 +26°C° 0 mm 1 m/S 751 mmHg 82%
    02:00 +26°C° 0.1 mm 1 m/S 751 mmHg 82%
    03:00 +26°C° 0.1 mm 1 m/S 751 mmHg 83%
    04:00 +26°C° 0.1 mm 1 m/S 751 mmHg 84%
    05:00 +24°C° 0.4 mm 0 m/S 752 mmHg 83%
    06:00 +25°C° 0.4 mm 0 m/S 752 mmHg 82%
    07:00 +25°C° 0.4 mm 0 m/S 752 mmHg 81%
    08:00 +27°C° 0.4 mm 0 m/S 752 mmHg 74%
    09:00 +29°C° 0.4 mm 0 m/S 752 mmHg 68%
    10:00 +30°C° 0.4 mm 0 m/S 753 mmHg 61%
    11:00 +33°C° 0 mm 1 m/S 752 mmHg 57%
    12:00 +34°C° 0 mm 1 m/S 752 mmHg 53%
    13:00 +36°C° 0 mm 2 m/S 752 mmHg 48%
    14:00 +35°C° 0.1 mm 2 m/S 752 mmHg 50%
    15:00 +35°C° 0.1 mm 2 m/S 751 mmHg 52%
    16:00 +34°C° 0.1 mm 2 m/S 751 mmHg 54%
    17:00 +32°C° 0.1 mm 2 m/S 751 mmHg 58%
    18:00 +31°C° 0.1 mm 2 m/S 751 mmHg 62%
    19:00 +29°C° 0.1 mm 2 m/S 751 mmHg 66%
    20:00 +29°C° 0.1 mm 3 m/S 751 mmHg 70%
    21:00 +28°C° 0.1 mm 3 m/S 751 mmHg 75%
    22:00 +27°C° 0.1 mm 3 m/S 752 mmHg 79%
    23:00 +27°C° 0.3 mm 3 m/S 752 mmHg 80%

    Morgen, 19 August, Montag

    Zeit Temperatur Niederschläge Wind Luftdruck Luftfeuchtigkeit
    00:00 +26°C° 0.3 mm 3 m/S 751 mmHg 82%
    01:00 +26°C° 0.3 mm 3 m/S 751 mmHg 83%
    02:00 +25°C° 0.2 mm 3 m/S 751 mmHg 83%
    03:00 +25°C° 0.2 mm 2 m/S 751 mmHg 84%
    04:00 +25°C° 0.2 mm 2 m/S 751 mmHg 84%
    05:00 +25°C° 0 mm 2 m/S 752 mmHg 83%
    06:00 +26°C° 0 mm 1 m/S 752 mmHg 82%
    07:00 +26°C° 0 mm 1 m/S 752 mmHg 81%
    08:00 +28°C° 0 mm 1 m/S 752 mmHg 73%
    09:00 +30°C° 0 mm 1 m/S 752 mmHg 65%
    10:00 +30°C° 0 mm 0 m/S 752 mmHg 57%
    11:00 +33°C° 0 mm 1 m/S 752 mmHg 53%
    12:00 +35°C° 0 mm 2 m/S 752 mmHg 50%
    13:00 +36°C° 0 mm 2 m/S 752 mmHg 47%
    14:00 +36°C° 0 mm 2 m/S 751 mmHg 48%
    15:00 +36°C° 0 mm 2 m/S 751 mmHg 49%
    16:00 +36°C° 0 mm 2 m/S 751 mmHg 50%
    17:00 +34°C° 0 mm 2 m/S 751 mmHg 54%
    18:00 +32°C° 0 mm 2 m/S 751 mmHg 58%
    19:00 +31°C° 0 mm 2 m/S 751 mmHg 62%
    20:00 +30°C° 0 mm 2 m/S 752 mmHg 65%
    21:00 +29°C° 0 mm 2 m/S 752 mmHg 68%
    22:00 +29°C° 0 mm 2 m/S 752 mmHg 70%
    23:00 +28°C° 0 mm 2 m/S 752 mmHg 69%

    übermorgen, 20 August, Dienstag

    Zeit Temperatur Niederschläge Wind Luftdruck Luftfeuchtigkeit
    00:00 +28°C° 0 mm 2 m/S 752 mmHg 67%
    01:00 +27°C° 0 mm 2 m/S 752 mmHg 65%
    02:00 +27°C° 0 mm 2 m/S 752 mmHg 66%
    03:00 +27°C° 0 mm 1 m/S 752 mmHg 67%
    04:00 +26°C° 0 mm 1 m/S 752 mmHg 67%
    05:00 +27°C° 0 mm 1 m/S 752 mmHg 68%
    06:00 +27°C° 0 mm 1 m/S 752 mmHg 68%
    07:00 +28°C° 0 mm 1 m/S 753 mmHg 68%
    08:00 +30°C° 0 mm 1 m/S 753 mmHg 63%
    09:00 +32°C° 0 mm 1 m/S 753 mmHg 58%
    10:00 +33°C° 0 mm 1 m/S 753 mmHg 53%
    11:00 +35°C° 0 mm 2 m/S 753 mmHg 51%
    12:00 +36°C° 0 mm 2 m/S 752 mmHg 49%
    13:00 +37°C° 0 mm 3 m/S 752 mmHg 47%
    14:00 +36°C° 0.3 mm 3 m/S 752 mmHg 50%
    15:00 +36°C° 0.3 mm 3 m/S 751 mmHg 54%
    16:00 +35°C° 0.3 mm 2 m/S 751 mmHg 57%
    17:00 +33°C° 4.6 mm 3 m/S 751 mmHg 63%
    18:00 +29°C° 4.6 mm 3 m/S 751 mmHg 69%
    19:00 +26°C° 4.6 mm 3 m/S 751 mmHg 75%
    20:00 +26°C° 1.8 mm 3 m/S 752 mmHg 77%
    21:00 +25°C° 1.8 mm 2 m/S 752 mmHg 79%
    22:00 +25°C° 1.8 mm 2 m/S 752 mmHg 81%
    23:00 +25°C° 0.8 mm 3 m/S 752 mmHg 79%

    21 August, Mittwoch

    Zeit Temperatur Niederschläge Wind Luftdruck Luftfeuchtigkeit
    00:00 +25°C° 0.8 mm 3 m/S 752 mmHg 76%
    01:00 +25°C° 0.8 mm 4 m/S 752 mmHg 74%
    02:00 +25°C° 0 mm 4 m/S 751 mmHg 77%
    03:00 +25°C° 0 mm 4 m/S 751 mmHg 80%
    04:00 +25°C° 0 mm 4 m/S 751 mmHg 84%
    05:00 +25°C° 0 mm 4 m/S 751 mmHg 83%
    06:00 +25°C° 0 mm 3 m/S 751 mmHg 83%
    07:00 +26°C° 0 mm 2 m/S 751 mmHg 83%
    08:00 +27°C° 0 mm 2 m/S 751 mmHg 77%
    09:00 +29°C° 0 mm 2 m/S 751 mmHg 71%
    10:00 +31°C° 0 mm 2 m/S 751 mmHg 64%
    11:00 +32°C° 0 mm 2 m/S 750 mmHg 61%
    12:00 +34°C° 0 mm 2 m/S 750 mmHg 58%
    13:00 +35°C° 0 mm 3 m/S 750 mmHg 55%
    14:00 +35°C° 0 mm 2 m/S 749 mmHg 54%
    15:00 +36°C° 0 mm 2 m/S 749 mmHg 53%
    16:00 +36°C° 0 mm 2 m/S 748 mmHg 52%
    17:00 +35°C° 0 mm 2 m/S 748 mmHg 55%
    18:00 +34°C° 0 mm 2 m/S 748 mmHg 59%
    19:00 +31°C° 0 mm 2 m/S 749 mmHg 62%
    20:00 +30°C° 2 mm 3 m/S 749 mmHg 66%
    21:00 +28°C° 2 mm 5 m/S 749 mmHg 70%
    22:00 +26°C° 2 mm 6 m/S 750 mmHg 75%
    23:00 +26°C° 0.1 mm 5 m/S 749 mmHg 74%

    22 August, Donnerstag

    Zeit Temperatur Niederschläge Wind Luftdruck Luftfeuchtigkeit
    00:00 +26°C° 0.1 mm 4 m/S 749 mmHg 73%
    01:00 +26°C° 0.1 mm 3 m/S 748 mmHg 72%
    02:00 +26°C° 0 mm 3 m/S 748 mmHg 73%
    03:00 +25°C° 0 mm 3 m/S 748 mmHg 73%
    04:00 +25°C° 0 mm 3 m/S 748 mmHg 74%
    05:00 +25°C° 0 mm 3 m/S 749 mmHg 74%
    06:00 +26°C° 0 mm 3 m/S 749 mmHg 75%
    07:00 +26°C° 0 mm 3 m/S 749 mmHg 76%
    08:00 +28°C° 0 mm 3 m/S 750 mmHg 72%
    09:00 +29°C° 0 mm 3 m/S 750 mmHg 68%
    10:00 +30°C° 0 mm 3 m/S 750 mmHg 64%
    11:00 +31°C° 0 mm 3 m/S 750 mmHg 63%
    12:00 +31°C° 0 mm 3 m/S 750 mmHg 62%
    13:00 +31°C° 0 mm 3 m/S 750 mmHg 61%
    14:00 +30°C° 0.3 mm 3 m/S 749 mmHg 63%
    15:00 +30°C° 0.3 mm 3 m/S 749 mmHg 66%
    16:00 +29°C° 0.3 mm 3 m/S 749 mmHg 68%
    17:00 +28°C° 0.1 mm 3 m/S 749 mmHg 66%
    18:00 +27°C° 0.1 mm 4 m/S 749 mmHg 64%
    19:00 +26°C° 0.1 mm 4 m/S 749 mmHg 61%
    20:00 +25°C° 0 mm 4 m/S 750 mmHg 61%
    21:00 +25°C° 0 mm 3 m/S 751 mmHg 61%
    22:00 +24°C° 0 mm 2 m/S 751 mmHg 61%
    23:00 +22°C° 0 mm 3 m/S 751 mmHg 63%

    23 August, Freitag

    Zeit Temperatur Niederschläge Wind Luftdruck Luftfeuchtigkeit
    00:00 +21°C° 0 mm 4 m/S 751 mmHg 65%
    01:00 +20°C° 0 mm 4 m/S 751 mmHg 68%
    02:00 +19°C° 0 mm 4 m/S 752 mmHg 68%
    03:00 +18°C° 0 mm 4 m/S 752 mmHg 68%
    04:00 +18°C° 0 mm 3 m/S 752 mmHg 69%
    05:00 +18°C° 0 mm 3 m/S 753 mmHg 68%
    06:00 +18°C° 0 mm 4 m/S 753 mmHg 68%
    07:00 +18°C° 0 mm 4 m/S 753 mmHg 68%
    08:00 +20°C° 0 mm 3 m/S 753 mmHg 62%
    09:00 +21°C° 0 mm 3 m/S 753 mmHg 57%
    10:00 +22°C° 0 mm 3 m/S 753 mmHg 52%
    11:00 +24°C° 0 mm 3 m/S 753 mmHg 50%
    12:00 +25°C° 0 mm 3 m/S 753 mmHg 48%
    13:00 +26°C° 0 mm 3 m/S 753 mmHg 45%
    14:00 +26°C° 0 mm 3 m/S 752 mmHg 46%
    15:00 +26°C° 0 mm 3 m/S 752 mmHg 47%
    16:00 +26°C° 0 mm 3 m/S 752 mmHg 48%
    17:00 +25°C° 0 mm 2 m/S 752 mmHg 51%
    18:00 +24°C° 0 mm 1 m/S 752 mmHg 54%
    19:00 +22°C° 0 mm 1 m/S 752 mmHg 57%
    20:00 +22°C° 0 mm 1 m/S 752 mmHg 58%
    21:00 +21°C° 0 mm 1 m/S 753 mmHg 59%
    22:00 +21°C° 0 mm 1 m/S 753 mmHg 59%
    23:00 +21°C° 0 mm 1 m/S 753 mmHg 61%
    Mehr zeigen